Location: Boston
(42.3580°N, 71.0600°W)
Time: 18:13:01
(UTC-04:00)

ISS - Visible Passes

Search period start: 23 September 2018 00:00
Search period end: 03 October 2018 00:00
Orbit: 403 x 408 km, 51.6° (Epoch: 23 September)

Date Brightness Start Highest point End Pass type
(mag) Time Alt. Az. Time Alt. Az. Time Alt. Az.
23 Sep -3.9 19:45:10 10° SW 19:48:26 68° SE 19:50:28 21° ENE visible
23 Sep -0.6 21:22:25 10° WNW 21:23:11 15° WNW 21:23:11 15° WNW visible
24 Sep -2.4 20:30:06 10° W 20:33:09 34° NNW 20:33:41 32° N visible
25 Sep -3.1 19:37:55 10° WSW 19:41:09 53° NNW 19:44:03 12° NE visible
25 Sep -0.6 21:15:48 10° WNW 21:16:44 14° NW 21:16:44 14° NW visible
26 Sep -1.7 20:23:22 10° WNW 20:26:03 22° NNW 20:26:59 20° N visible
27 Sep -2.1 19:30:58 10° W 19:33:56 29° NNW 19:36:54 10° NE visible
27 Sep -0.6 21:09:01 10° NW 21:09:48 13° NNW 21:09:48 13° NNW visible
28 Sep -1.5 20:16:41 10° NW 20:18:59 17° N 20:19:52 16° NNE visible
29 Sep -1.6 19:24:13 10° WNW 19:26:47 20° NNW 19:29:22 10° NE visible
29 Sep -0.7 21:01:55 10° NW 21:02:35 13° NNW 21:02:35 13° NNW visible
30 Sep -1.5 20:09:46 10° NW 20:11:56 16° N 20:12:34 15° NNE visible
01 Oct -1.4 19:17:25 10° NW 19:19:40 17° N 19:21:55 10° NE visible
01 Oct -0.8 20:54:28 10° NW 20:55:12 14° NNW 20:55:12 14° NNW visible
02 Oct -1.7 20:02:29 10° NW 20:04:49 18° N 20:05:09 17° NNE visible
